Flag for Turkey Weather past 2 weeks in Ankara, Turkey

Now
27 °F

Ice fog.


Feels Like: 27 °F
Forecast: 28 / 53 °F
Wind: 2 mph from Southwest

Location: Ankara / Esenboga

Current Time: Mar 2, 2015 at 7:16:39 AM

Latest Report: Mar 2, 2015 at 6:50 AM


Visibility: 2 mi

Pressure: 29.98 "Hg

Humidity: 100%

Dew point: 27 °F

Location of AnkaraLocation

Historic Weather in Ankara — Graph

°F

Ankara temperature yesterday

Maximum temperature yesterday: 50 °F (at 2:20 PM)
Minimum temperature yesterday: 34 °F (at 4:20 AM)
Average temperature yesterday: 42 °F

Past Weeks' High & Low Weather Summary

 TemperatureHumidityPressure
High57 °F (Feb 27, 2:50 PM)100% (Feb 15, 5:50 AM)30.24 "Hg (Feb 15, 5:50 AM)
Low12 °F (Feb 21, 5:50 AM)36% (Feb 27, 3:50 PM)29.80 "Hg (Feb 19, 3:50 PM)
Average34 °F79%30.00 "Hg
* Reported Feb 15 5:50 AM — Mar 2 5:50 AM, Ankara, Weather by CustomWeather, © 2015

Note: Actual official high and low records may vary slightly from our data, if they occured in-between our weather recording intervals... More about our weather records

Advertising

Ankara weather history for previous 24 hours

 ConditionsComfort  
Time TempWeatherWind HumidityBarometerVisibility
5:50 AM
Mon, Mar 2
28 °FIce fog.3 mph93%29.98 "Hg2 mi
5:20 AM28 °FIce fog.1 mph100%29.98 "Hg2 mi
4:50 AM28 °FIce fog.1 mph93%29.95 "Hg3 mi
4:20 AM30 °FIce fog.1 mph93%29.95 "Hg3 mi
3:50 AM30 °FIce fog.2 mph100%29.95 "Hg3 mi
3:20 AM30 °FIce fog.2 mph93%29.95 "Hg3 mi
2:50 AM30 °FIce fog.2 mph93%29.95 "Hg3 mi
2:20 AM32 °FClear.2 mph93%29.95 "Hg4 mi
1:50 AM32 °FClear.2 mph93%29.95 "Hg4 mi
1:20 AM30 °FClear.3 mph93%29.95 "Hg4 mi
12:50 AM32 °FClear.1 mph93%29.95 "Hg5 mi
12:20 AM34 °FClear.2 mph93%29.95 "Hg5 mi
11:50 PM
Sun, Mar 1
34 °FPassing clouds.3 mph93%29.95 "HgN/A
11:20 PM34 °FClear.1 mph87%29.95 "Hg10 mi
10:50 PM36 °FClear.2 mph87%29.95 "Hg10 mi
10:20 PM36 °FClear.1 mph87%29.95 "Hg10 mi
9:20 PM37 °FPassing clouds.3 mph81%29.95 "HgN/A
8:50 PM37 °FPassing clouds.3 mph81%29.95 "HgN/A
8:20 PM39 °FPassing clouds.5 mph81%29.95 "HgN/A
7:50 PM41 °FPassing clouds.2 mph76%29.95 "HgN/A
7:20 PM39 °FPassing clouds.3 mph81%29.95 "HgN/A
6:50 PM41 °FPassing clouds.2 mph76%29.95 "HgN/A
6:20 PM45 °FPassing clouds.1 mph66%29.95 "HgN/A
5:50 PM46 °FPassing clouds.1 mph62%29.95 "HgN/A
5:20 PM46 °FScattered clouds.5 mph62%29.95 "HgN/A
4:50 PM48 °FScattered clouds.7 mph62%29.95 "HgN/A
4:20 PM48 °FScattered clouds.9 mph62%29.95 "HgN/A
3:50 PM50 °FScattered clouds.7 mph58%29.95 "HgN/A
3:20 PM50 °FScattered clouds.7 mph58%29.95 "HgN/A
2:50 PM50 °FScattered clouds.9 mph58%29.95 "HgN/A
2:20 PM50 °FScattered clouds.8 mph58%29.95 "HgN/A
1:50 PM48 °FScattered clouds.7 mph66%29.98 "HgN/A
1:20 PM46 °FScattered clouds.8 mph66%29.98 "HgN/A
12:50 PM46 °FScattered clouds.8 mph66%29.98 "HgN/A
12:20 PM46 °FBroken clouds.10 mph66%30.01 "HgN/A
11:50 AM46 °FScattered clouds.13 mph66%30.01 "HgN/A
11:20 AM46 °FScattered clouds.12 mph66%30.01 "HgN/A
10:50 AM45 °FScattered clouds.6 mph76%30.01 "HgN/A
10:20 AM45 °FScattered clouds.3 mph76%30.01 "HgN/A
9:50 AM43 °FScattered clouds.3 mph81%30.01 "HgN/A
9:20 AM43 °FScattered clouds.3 mph81%30.01 "HgN/A
8:50 AM43 °FScattered clouds.1 mph81%30.01 "HgN/A
8:20 AM41 °FScattered clouds.2 mph87%30.01 "HgN/A
7:50 AM39 °FScattered clouds.1 mph93%30.01 "HgN/A
7:20 AM37 °FScattered clouds.3 mph93%29.98 "HgN/A
Weather by CustomWeather, © 2015

See weather overviewHow to use our weather pages